2022-087C (53301 NORAD) Tracking and Keplerian Element Data

This shows tracking and keplerian element data for the satellite.

Feedback or suggestion? Click here.




ElementValue
Catalog53301
Name2022-087C
Epoch Orbit943
Epoch Day270.17765023
Epoch Year2022
RAAN343.6126
Inclination97.3999
Eccentricity0.001776
Argument of Perigee74.6484
Mean Anonmoly9.2504
Mean Motion15.21972024
Decay Rate4.701E-05
L11 53301U 22087C 22270.17765023 .00004701 00000+0 20827-3 0 9998
L22 53301 97.3999 343.6126 0017760 74.6484 9.2504 15.21972024 9438

Live tracking and technical data element details for 2022-087C (NORAD 53301). 2022-087C can be tracked NOW for your location showing map with azimuth and elevation plus other details from your city location.

Track the satellite on the map from your city or location and see movement details for azimuth, elevation, latitude, longitude, range, height, and movement on the map or in text.







IsCatalogInMostPopularTable: catalog: 53301, numindb: 3
Update: records affected: 1



GetName: 53301 2022-087C

Hit Count: updated at: Wed, 28 Sep 2022 22:17:08 GMT